Regional Weather Roundup
Issued by NWS Little Rock, AR

Home | Current Version | Previous Version | Graphics & Text | Print | Product List | Glossary On
Versions: 1 2 3 4 5 6 7 8 9 10 11 12 13 14 15 16 17 18 19 20 21 22 23 24 25 26 27 28 29 30 31 32 33 34 35 36 37 38 39 40 41 42 43 44 45 46 47 48 49 50
000
ASUS44 KLZK 041605
RWRLZK

WEATHER ROUNDUP FOR ARKANSAS
NATIONAL WEATHER SERVICE LITTLE ROCK AR
1100 AM CDT TUE AUG 04 2015

NOTE: "FAIR" INDICATES FEW OR NO CLOUDS BELOW 12,000 FEET WITH NO
SIGNIFICANT WEATHER AND/OR OBSTRUCTIONS TO VISIBILITY.

ARZ001-003-010-029-041700-
NORTHWEST ARKANSAS

CITY           SKY/WX    TMP DP  RH WIND       PRES   REMARKS
FAYETTEVILLE   PTSUNNY   83  70  64 S9        30.03S HX  87
FORT SMITH     MOSUNNY   87  70  56 E7        29.98S HX  92
HARRISON       PTSUNNY   86  69  56 S7        30.04S HX  90
BENTONVILLE    CLOUDY    84  66  54 SW9       30.04S HX  86
ROGERS         CLOUDY    86  69  56 SE7       30.04S HX  90
SILOAM SPGS    CLOUDY    84  66  54 S7        30.02R HX  86
HIGHFILL       CLOUDY    85  71  63 S8        30.03R HX  90
SPRINGDALE     PTSUNNY   84  68  58 S14       30.05S HX  87
$$

ARZ004-005-016-041700-
NORTH CENTRAL ARKANSAS

CITY           SKY/WX    TMP DP  RH WIND       PRES   REMARKS
BATESVILLE     MOSUNNY   90  70  51 S7        30.01R HX  95
FLIPPIN        MOSUNNY   84  70  61 S3        30.00S HX  88
MTN HOME       MOSUNNY   84  71  65 VRB5      30.02S HX  89
$$

ARZ040-041-041700-
WEST CENTRAL ARKANSAS

CITY           SKY/WX    TMP DP  RH WIND       PRES   REMARKS
MENA           PTSUNNY   90  68  48 CALM      30.03S HX  93
MOUNT IDA      MOSUNNY   90  67  46 VRB5      30.00R HX  93
$$

ARZ009-017-025-026-028-041700-
NORTHEAST ARKANSAS

CITY           SKY/WX    TMP DP  RH WIND       PRES   REMARKS
JONESBORO      SUNNY     89  69  51 SW10      29.99F HX  93
NEWPORT        SUNNY     94  70  45 SW8       30.01S HX 100
WALNUT RIDGE   MOSUNNY   91  70  49 SW10      29.99S HX  97
BLYTHEVILLE    MOSUNNY   90  74  59 SW6       30.00S HX  99
$$

ARZ022-023-033-042-044-041700-
CENTRAL ARKANSAS

CITY           SKY/WX    TMP DP  RH WIND       PRES   REMARKS
LITTLE ROCK    MOSUNNY   91  69  48 SE6       30.01S HX  96
N LITTLE ROCK  MOSUNNY   92  70  48 S6        30.01S HX  97
JACKSONVILLE   SUNNY     93  68  43 S10       30.00S HX  97
SEARCY         SUNNY     91  72  53 S10       30.02S HX  98
HOT SPRINGS    SUNNY     92  66  42 S8        30.01S HX  94
RUSSELLVILLE   MOSUNNY   90  67  46 S6        30.00S HX  93
$$

ARZ036-041700-
EAST ARKANSAS

CITY           SKY/WX    TMP DP  RH WIND       PRES   REMARKS
WEST MEMPHIS   SUNNY     90  73  57 VRB3      30.00S HX  98
$$

ARZ050-053-066-070-073-041700-
SOUTHWEST ARKANSAS

CITY           SKY/WX    TMP DP  RH WIND       PRES   REMARKS
ARKADELPHIA    FAIR      94  72  48 VRB3      30.00S HX 102
CAMDEN         SUNNY     93  66  40 S6        29.99S HX  96
TEXARKANA      MOSUNNY   89  68  49 VRB3      30.00R HX  93
EL DORADO      SUNNY     92  68  45 SE5       30.00R HX  96
DE QUEEN       CLOUDY    86  71  60 CALM      29.99R HX  91
$$

ARZ056-057-069-041700-
SOUTHEAST ARKANSAS

CITY           SKY/WX    TMP DP  RH WIND       PRES   REMARKS
PINE BLUFF     SUNNY     92  70  48 MISG      30.01R HX  97
STUTTGART      SUNNY     91  72  52 E5        30.01S HX  98
MONTICELLO     SUNNY     94  64  37 VRB6      30.00S HX  95

$$




USA.gov is the U.S. government's official web portal to all federal, state and local government web resources and services.